Home > Weather > Newark > Past weeks

Flag for USA Weather for the Past 2 Weeks in Newark, New Jersey, USA

Now
46 °F

Fog.


Feels Like: 42 °F
Forecast: 46 / 59 °F
Wind: 8 mph from Northeast

Location: Newark International Airport

Current Time: May 2, 2016 at 4:56:19 AM

Latest Report: May 2, 2016 at 3:51 AM


Visibility: 1 mi

Pressure: 30.01 "Hg

Humidity: 96%

Dew Point: 45 °F

Location of NewarkLocation

Historic Weather in Newark — Graph

°F

Newark Temperature Yesterday

Maximum temperature yesterday: 51 °F (at 12:51 AM)
Minimum temperature yesterday: 43 °F (at 8:51 PM)
Average temperature yesterday: 47 °F

High & Low Weather Summary for the Past Weeks

 TemperatureHumidityPressure
High82 °F (Apr 22, 2:51 PM)100% (Apr 23, 4:51 AM)30.46 "Hg (Apr 23, 4:51 AM)
Low43 °F (Apr 17, 4:51 AM)10% (Apr 20, 3:51 PM)29.62 "Hg (Apr 26, 2:51 PM)
Average58 °F52%30.04 "Hg
* Reported Apr 17 2:51 AM — May 2 2:51 AM, Newark, Weather by CustomWeather, © 2016

Note: Actual official high and low records may vary slightly from our data, if they occured in-between our weather recording intervals... More about our weather records

Advertising

Newark Weather History for the Previous 24 Hours

Scroll right to see more
 ConditionsComfort  
Time TempWeatherWind HumidityBarometerVisibility
2:51 AM
Mon, May 2
46 °FFog.7 mph96%30.04 "Hg1 mi
1:51 AM45 °FFog.8 mph97%30.04 "Hg1 mi
12:51 AM45 °FFog.7 mph97%30.07 "Hg4 mi
11:51 PM
Sun, May 1
45 °FFog.9 mph93%30.09 "Hg4 mi
10:51 PM44 °FFog.9 mph96%30.08 "Hg9 mi
9:51 PM44 °FDrizzle. Fog.8 mph99%30.09 "Hg2 mi
8:51 PM43 °FDrizzle. Fog.9 mph100%30.10 "Hg2 mi
7:51 PM44 °FDrizzle. Fog.8 mph100%30.10 "Hg2 mi
6:51 PM44 °FLight rain. Fog.7 mph100%30.10 "Hg2 mi
5:51 PM44 °FLight rain. Fog.6 mph100%30.10 "Hg2 mi
4:51 PM44 °FLight rain. Cloudy.7 mph100%30.11 "Hg8 mi
3:51 PM45 °FLight rain. Mostly cloudy.9 mph97%30.13 "Hg10 mi
2:51 PM45 °FLight rain. Mostly cloudy.6 mph97%30.14 "Hg10 mi
1:51 PM45 °FLight rain. Mostly cloudy.9 mph100%30.15 "Hg10 mi
12:51 PM45 °FLight rain. Fog.8 mph100%30.16 "Hg6 mi
11:51 AM46 °FLight rain. Cloudy.10 mph96%30.19 "Hg7 mi
10:51 AM47 °FLight rain. Mostly cloudy.7 mph90%30.20 "Hg8 mi
10:04 AM48 °FLight rain. Mostly cloudy.7 mph87%30.20 "Hg8 mi
9:51 AM49 °FLight rain. Mostly cloudy.6 mph80%30.21 "Hg8 mi
8:51 AM49 °FLight rain. Mostly cloudy.7 mph77%30.22 "Hg9 mi
7:51 AM50 °FLight rain. Mostly cloudy.6 mph74%30.21 "Hg9 mi
6:51 AM50 °FMostly cloudy.8 mph66%30.21 "Hg10 mi
5:51 AM50 °FMostly cloudy.5 mph63%30.19 "Hg10 mi
4:51 AM51 °FOvercast.3 mph63%30.19 "Hg10 mi
Weather by CustomWeather, © 2016

See weather overviewHow to use our weather pages